FW7196 Weather Reports


time (UTC)temp
C
wind
direction
speed
KPH
gust
KPH
rain 1hr
cm
rain 24hr
cm
rain mn
cm
humidity
%
barometer
mb
20260903074541 15 0 0.0 1.6 0.00 0.10 0.10 94 1015.8
20260903073046 15 0 0.0 3.2 0.00 0.10 0.10 94 1015.9
20260903071544 15 0 0.0 8.0 0.00 0.10 0.10 94 1016.2
20260903070045 15 0 0.0 3.2 0.03 0.10 0.10 94 1016.0
20260903064540 15 0 0.0 1.6 0.08 0.10 0.10 94 1016.1
20260903063041 15 0 0.0 1.6 0.10 0.10 0.10 93 1016.0
20260903061558 15 0 0.0 3.2 0.10 0.10 0.10 92 1016.3
20260903060045 16 207 0.0 9.7 0.08 0.08 0.08 90 1016.4
20260903054542 16 0 0.0 4.8 0.03 0.05 0.03 87 1016.6
20260903053055 16 0 0.0 3.2 0.00 0.03 0.00 86 1016.8
20260903051548 16 0 0.0 6.4 0.00 0.03 0.00 86 1016.9
20260903050042 16 0 0.0 1.6 0.00 0.03 0.00 86 1017.0
20260903044540 16 0 0.0 4.8 0.00 0.03 0.00 85 1017.2
20260903043043 16 52 0.0 4.8 0.00 0.03 0.00 86 1017.3
20260903041542 16 280 1.6 4.8 0.00 0.03 0.00 85 1017.2
20260903040040 16 57 0.0 6.4 0.00 0.03 0.00 85 1017.1
20260903034543 16 0 0.0 3.2 0.00 0.03 0.03 84 1017.6
20260903033049 16 0 0.0 6.4 0.00 0.03 0.03 83 1017.4
20260903031549 16 96 0.0 4.8 0.00 0.03 0.03 83 1018.0
20260903030106 16 0 0.0 1.6 0.00 0.03 0.03 84 1018.3
20260903024545 17 0 0.0 3.2 0.00 0.03 0.03 83 1018.5
20260903023043 17 353 0.0 4.8 0.00 0.03 0.03 83 1018.2
20260903021542 17 0 0.0 4.8 0.00 0.03 0.03 84 1018.3
20260903020050 17 83 1.6 12.9 0.00 0.03 0.03 83 1018.7
20260903014544 17 0 0.0 3.2 0.00 0.03 0.03 84 1018.6
20260903013515 17 148 0.0 0.0 0.00 0.03 0.03 85 1018.9
20260903013045 17 0 1.6 8.0 0.00 0.03 0.03 85 1019.1
20260903013001 17 151 0.0 6.4 0.00 0.03 0.03 85 1019.1
20260903012453 17 68 0.0 6.4 0.00 0.03 0.03 84 1018.9
20260903011552 17 0 0.0 6.4 0.00 0.03 0.03 84 1018.9
20260903011317 17 60 0.0 9.7 0.00 0.03 0.03 84 1018.9
20260903010812 17 46 0.0 9.7 0.00 0.03 0.03 84 1018.7
20260903010253 17 74 0.0 9.7 0.00 0.03 0.03 85 1018.8
20260903010050 17 120 0.0 11.3 0.00 0.03 0.03 85 1018.7
20260903005748 17 90 0.0 0.0 0.00 0.03 0.03 86 1018.8
20260903005244 17 22 0.0 0.0 0.00 0.00 0.03 86 1018.7
20260903004544 17 0 0.0 6.4 0.00 0.03 0.03 86 1018.5
20260903003043 17 0 0.0 9.7 0.00 0.03 0.03 87 1018.4
20260903001542 17 75 1.6 9.7 0.00 0.03 0.03 87 1018.5
20260903000046 17 243 0.0 6.4 0.00 0.03 0.03 88 1018.0
20260902234543 17 0 0.0 6.4 0.00 0.03 0.03 88 1018.1
20260902233043 17 24 0.0 4.8 0.00 0.03 0.03 88 1018.2
20260902231600 17 41 0.0 11.3 0.00 0.03 0.03 87 1018.8
20260902230048 17 0 0.0 3.2 0.00 0.03 0.03 87 1019.6
20260902224556 17 0 0.0 1.6 0.00 0.03 0.03 87 1020.0
20260902223050 17 0 0.0 3.2 0.00 0.03 0.03 87 1020.1
20260902221600 17 14 0.0 3.2 0.00 0.03 0.03 86 1020.2
20260902220058 17 0 0.0 6.4 0.00 0.03 0.03 86 1020.2
20260902214543 18 0 0.0 3.2 0.00 0.03 0.03 86 1020.0
20260902213041 18 257 0.0 3.2 0.00 0.03 0.03 86 1020.2
20260902211544 18 270 0.0 3.2 0.00 0.03 0.03 85 1019.9
20260902210046 18 0 0.0 4.8 0.00 0.03 0.03 85 1020.3
20260902204549 18 22 0.0 3.2 0.00 0.03 0.03 84 1020.5
20260902203048 18 179 0.0 4.8 0.00 0.03 0.03 84 1020.4
20260902201550 18 0 0.0 4.8 0.00 0.03 0.03 83 1020.4
20260902200045 19 0 0.0 9.7 0.00 0.03 0.03 82 1020.5
20260902194542 19 92 1.6 9.7 0.00 0.03 0.03 82 1020.5
20260902193054 19 9 0.0 11.3 0.00 0.03 0.03 82 1020.8
20260902191542 19 0 1.6 11.3 0.00 0.03 0.03 83 1020.9
20260902190329 19 51 0.0 0.0 0.00 0.03 0.03 82 1020.9
20260902190043 18 359 0.0 11.3 0.00 0.03 0.03 82 1021.0
20260902185151 18 194 0.0 3.2 0.00 0.03 0.03 86 1021.1
20260902184648 18 191 0.0 0.0 0.00 0.03 0.03 86 1021.3
20260902184606 17 0 0.0 3.2 0.00 0.03 0.03 86 1021.4
20260902184133 18 180 0.0 0.0 0.00 0.03 0.03 86 1021.6
20260902183618 18 124 0.0 0.0 0.00 0.03 0.03 85 1021.6
20260902183103 18 124 0.0 4.8 0.00 0.03 0.03 85 1021.8
20260902183047 18 0 1.6 6.4 0.00 0.03 0.03 85 1021.8
20260902182610 18 159 0.0 0.0 0.00 0.03 0.03 85 1021.8
20260902182118 18 159 0.0 0.0 0.00 0.03 0.03 84 1021.7
20260902181605 18 161 0.0 0.0 0.00 0.03 0.03 83 1021.5
20260902181545 18 0 0.0 6.4 0.00 0.03 0.03 83 1021.6
20260902181052 18 26 0.0 1.6 0.00 0.03 0.03 84 1021.5
20260902180544 18 188 0.0 0.0 0.00 0.03 0.03 84 1021.4
20260902180044 18 0 0.0 4.8 0.00 0.03 0.03 83 1021.3
20260902180038 18 292 0.0 1.6 0.00 0.03 0.03 83 1021.3
20260902174541 18 50 0.0 4.8 0.00 0.03 0.03 83 1021.4
20260902173044 18 17 0.0 3.2 0.00 0.03 0.03 83 1021.3
20260902171552 18 0 0.0 1.6 0.00 0.03 0.03 84 1021.5
20260902170041 18 0 0.0 6.4 0.00 0.03 0.03 83 1021.8
20260902164543 18 0 0.0 4.8 0.00 0.03 0.03 82 1021.8
20260902163049 18 0 0.0 8.0 0.00 0.03 0.03 81 1021.8
20260902161542 18 0 0.0 8.0 0.00 0.03 0.03 82 1021.6
20260902160544 18 39 0.0 1.6 0.00 0.03 0.03 82 1021.8
20260902160046 18 0 0.0 6.4 0.00 0.03 0.03 82 1021.9
20260902160029 18 6 0.0 4.8 0.00 0.03 0.03 82 1021.9
20260902155534 18 173 0.0 0.0 0.00 0.03 0.03 84 1021.9
20260902154545 18 0 0.0 3.2 0.00 0.03 0.03 84 1022.2
20260902153051 18 0 0.0 3.2 0.00 0.03 0.03 83 1022.6
20260902151542 18 0 0.0 6.4 0.00 0.03 0.03 83 1022.3
20260902150043 18 0 0.0 3.2 0.00 0.03 0.03 85 1022.6
20260902145009 18 15 0.0 0.0 0.00 0.03 0.03 83 1022.6
20260902144542 17 0 1.6 4.8 0.00 0.03 0.03 85 1022.5
20260902144513 18 316 0.0 3.2 0.00 0.03 0.03 84 1022.5
20260902144012 18 340 0.0 0.0 0.00 0.03 0.03 84 1022.3
20260902143509 17 343 0.0 0.0 0.00 0.03 0.03 85 1022.5
20260902143041 17 0 0.0 6.4 0.00 0.03 0.03 86 1022.5
20260902143015 17 152 0.0 0.0 0.00 0.03 0.03 86 1022.5
20260902142500 17 262 0.0 4.8 0.00 0.03 0.03 86 1022.3
20260902141956 17 272 0.0 1.6 0.00 0.03 0.03 87 1022.3
20260902141539 17 0 0.0 4.8 0.00 0.03 0.03 87 1022.3
20260902141445 17 125 0.0 3.2 0.00 0.03 0.03 87 1022.3
20260902140935 17 279 0.0 0.0 0.00 0.03 0.03 88 1022.2
20260902140416 17 199 0.0 1.6 0.00 0.03 0.03 88 1022.3
20260902140041 16 317 0.0 3.2 0.00 0.03 0.03 89 1022.3
20260902135858 16 334 0.0 0.0 0.00 0.03 0.03 90 1022.2
20260902135349 16 304 0.0 0.0 0.00 0.03 0.03 90 1022.1
20260902134848 16 38 0.0 0.0 0.00 0.03 0.03 90 1022.2
20260902134550 16 0 0.0 4.8 0.00 0.08 0.03 91 1022.1
20260902134346 16 238 0.0 3.2 0.00 0.03 0.03 90 1022.1
20260902133229 16 254 0.0 1.6 0.00 0.03 0.03 92 1021.8
20260902133047 16 0 0.0 4.8 0.00 0.08 0.03 92 1021.8
20260902132722 16 195 0.0 3.2 0.00 0.03 0.03 92 1021.8
20260902132223 16 156 0.0 1.6 0.00 0.03 0.03 94 1021.8
20260902131545 16 0 0.0 1.6 0.00 0.08 0.03 95 1021.7
20260902131053 16 209 0.0 0.0 0.00 0.03 0.03 95 1021.6
20260902130043 15 0 0.0 3.2 0.00 0.08 0.03 95 1021.7
20260902125926 16 228 0.0 0.0 0.00 0.08 0.03 96 1021.7
20260902125408 16 228 0.0 1.6 0.00 0.08 0.03 96 1021.6
20260902124544 15 0 0.0 3.2 0.00 0.41 0.03 96 1021.7
20260902124235 15 184 0.0 0.0 0.00 0.08 0.03 96 1021.7
20260902123738 15 196 0.0 0.0 0.00 0.46 0.03 96 1021.8
20260902123243 15 196 0.0 0.0 0.00 0.46 0.03 96 1021.8
20260902123051 15 196 0.0 4.8 0.00 0.41 0.03 96 1021.9
20260902121544 15 0 0.0 1.6 0.00 0.41 0.03 97 1022.0
20260902121502 15 261 0.0 0.0 0.00 0.46 0.03 97 1021.9
20260902120043 15 0 0.0 3.2 0.00 0.41 0.03 97 1021.9
20260902114546 15 0 0.0 8.0 0.00 0.69 0.03 97 1021.9
20260902113041 15 0 0.0 1.6 0.00 0.69 0.03 97 1022.0
20260902111540 14 0 0.0 0.0 0.00 0.69 0.03 97 1022.1
20260902110046 14 0 0.0 1.6 0.00 0.69 0.03 97 1022.1
20260902104542 14 0 0.0 0.0 0.00 0.79 0.03 97 1021.8
20260902103040 14 0 0.0 0.0 0.00 0.79 0.03 97 1021.8
20260902101547 14 0 0.0 0.0 0.00 0.79 0.03 97 1021.5
20260902100041 14 0 0.0 0.0 0.00 0.79 0.03 97 1021.4
20260902094542 15 0 0.0 1.6 0.00 0.79 0.03 97 1021.5
20260902093040 15 0 0.0 0.0 0.00 0.79 0.03 97 1021.5
20260902091544 15 0 0.0 0.0 0.00 0.79 0.03 97 1021.4
20260902090048 15 30 0.0 0.0 0.00 0.76 0.03 96 1021.1
20260902090042 15 0 0.0 0.0 0.00 0.79 0.03 96 1021.1
20260902084545 15 0 0.0 0.0 0.00 0.79 0.03 97 1021.3
20260902083041 15 0 0.0 1.6 0.00 0.79 0.03 97 1021.1
20260902081546 15 0 0.0 0.0 0.00 0.79 0.03 96 1021.3
20260902080043 15 0 0.0 0.0 0.00 0.79 0.03 96 1021.0